Terug naar catalogus

CZ-6A DEB

ActiefPO
NORAD 61500·DEBRIS·🇨🇳 China

Gelanceerd Aug 6, 2024 vanaf Taiyuan Satellite Launch Center

Loading…

Volgende Passages (komende 24 uur)

TLE

VersSource: Space-Track

Epoch: Sep 14, 2026, 11:07 UTC

1 61500U 24140ABJ 26257.46354495  .00001714  00000-0  82075-3 0  9993
2 61500  88.9774 263.4647 0070625 279.5691  79.7522 14.17382936106551

Volg CZ-6A DEB in realtime met AllMySat

Download on the App Store